�N����,����,�~����,�C��,���x,�C��,����,���ϕ���,�ő�u�ԕ���,�ő厞����,���˗�,�I�_���x,�n�����x,�ő啗���N��,DTYPE
"20/05/26","00:10",0.0,21.4,78.1,1004.1,321.9,1.6,3.1,329.2,0.00,17.5,21.9,"00:00:56",1
"20/05/26","00:20",0.0,21.3,78.2,1004.1,327.5,1.6,3.1,340.3,0.00,17.4,21.7,"00:18:56",1
"20/05/26","00:30",0.0,21.5,77.5,1004.3,328.4,2.7,3.6,323.7,0.00,17.4,21.8,"00:23:28",1
"20/05/26","00:40",0.0,21.5,76.9,1003.8,320.9,2.0,4.0,341.8,0.00,17.3,21.6,"00:33:36",1
"20/05/26","00:50",0.0,21.4,77.0,1004.3,331.8,1.7,3.3,332.1,0.00,17.2,21.6,"00:47:52",1
"20/05/26","01:00",0.0,21.3,77.3,1003.8,308.1,1.6,3.2,343.8,0.00,17.2,21.6,"00:51:36",1
"20/05/26","01:10",0.0,21.2,77.9,1004.5,314.8,1.1,1.8,317.0,0.00,17.2,21.6,"01:07:36",1
"20/05/26","01:20",0.0,20.9,78.6,1004.1,297.8,1.1,1.6,337.6,0.00,17.1,21.7,"01:10:32",1
"20/05/26","01:30",0.0,20.8,79.4,1003.8,348.4,0.3,1.0,14.5,0.00,17.1,21.5,"01:25:12",1
"20/05/26","01:40",0.0,20.5,79.9,1003.4,287.6,0.2,0.6,297.7,0.00,17.0,21.4,"01:38:56",1
"20/05/26","01:50",0.0,20.5,80.6,1003.8,312.8,1.0,1.6,337.9,0.00,17.1,21.6,"01:45:04",1
"20/05/26","02:00",0.0,20.4,81.3,1003.6,312.1,1.2,2.1,339.9,0.00,17.1,21.5,"01:59:12",1
"20/05/26","02:10",0.0,20.5,81.9,1003.8,332.3,2.1,2.9,330.7,0.00,17.3,21.2,"02:07:20",1
"20/05/26","02:20",0.0,20.5,82.2,1003.8,327.2,1.6,2.8,335.1,0.00,17.4,21.3,"02:10:16",1
"20/05/26","02:30",0.0,20.4,82.5,1003.6,301.9,1.1,1.6,322.4,0.00,17.4,21.3,"02:29:36",1
"20/05/26","02:40",0.0,20.3,82.7,1003.6,299.2,1.1,1.9,332.2,0.00,17.3,21.3,"02:32:48",1
"20/05/26","02:50",0.0,20.2,83.0,1003.8,304.2,1.1,2.0,325.9,0.00,17.3,21.3,"02:48:40",1
"20/05/26","03:00",0.0,20.0,83.2,1003.8,300.6,1.0,1.6,303.1,0.00,17.1,21.2,"02:50:16",1
"20/05/26","03:10",0.0,19.9,83.4,1004.1,295.1,0.8,1.7,322.8,0.00,17.0,21.2,"03:00:24",1
"20/05/26","03:20",0.0,20.0,83.6,1003.6,300.7,0.7,1.3,340.9,0.00,17.2,21.2,"03:10:08",1
"20/05/26","03:30",0.0,20.0,83.7,1003.8,296.1,1.0,1.3,312.2,0.00,17.2,21.2,"03:23:52",1
"20/05/26","03:40",0.0,20.0,84.0,1003.8,312.5,1.2,1.7,338.4,0.00,17.3,21.1,"03:37:20",1
"20/05/26","03:50",0.0,19.9,84.3,1004.3,301.6,1.0,1.3,326.0,0.00,17.2,21.1,"03:40:16",1
"20/05/26","04:00",0.0,19.9,84.4,1003.6,291.8,0.7,1.4,336.4,0.00,17.2,21.0,"03:50:16",1
"20/05/26","04:10",0.0,19.9,84.7,1003.6,333.5,0.7,1.1,328.7,0.00,17.3,21.0,"04:00:48",1
"20/05/26","04:20",0.0,19.9,84.8,1003.8,302.1,0.8,1.0,305.2,0.00,17.3,20.9,"04:13:44",1
"20/05/26","04:30",0.0,19.9,85.1,1003.6,301.6,1.0,1.3,290.3,0.00,17.4,21.1,"04:25:20",1
"20/05/26","04:40",0.0,19.8,85.3,1003.4,308.4,0.7,1.2,317.4,0.00,17.3,21.0,"04:32:16",1
"20/05/26","04:50",0.0,19.7,85.5,1003.6,284.9,0.7,1.2,275.9,0.00,17.2,20.9,"04:45:20",1
"20/05/26","05:00",0.0,19.6,85.9,1003.4,326.7,1.2,2.2,341.2,0.00,17.2,20.8,"04:52:24",1
"20/05/26","05:10",0.0,19.6,86.1,1003.4,290.4,1.0,1.4,314.8,0.00,17.3,20.8,"05:00:48",1
"20/05/26","05:20",0.0,19.6,86.3,1003.4,303.2,1.0,2.1,320.6,0.00,17.3,20.9,"05:18:24",1
"20/05/26","05:30",0.0,19.6,86.5,1003.8,293.7,0.8,1.8,320.3,0.00,17.3,20.7,"05:20:08",1
"20/05/26","05:40",0.0,19.6,86.7,1004.1,284.9,0.7,1.1,320.5,0.00,17.4,20.7,"05:31:28",1
"20/05/26","05:50",0.0,19.7,86.8,1003.8,297.5,1.1,2.0,321.1,0.01,17.5,20.7,"05:48:40",1
"20/05/26","06:00",0.0,19.9,87.0,1003.6,322.2,1.3,1.8,331.5,0.02,17.7,20.7,"05:50:16",1
"20/05/26","06:10",0.0,20.0,87.0,1003.6,324.6,1.3,1.9,334.5,0.03,17.8,20.8,"06:06:24",1
"20/05/26","06:20",0.0,20.3,87.1,1003.8,284.2,1.0,1.2,299.0,0.04,18.1,21.0,"06:16:32",1
"20/05/26","06:30",0.0,20.5,87.0,1003.8,276.0,1.0,1.6,266.4,0.04,18.3,20.7,"06:29:52",1
"20/05/26","06:40",0.0,20.6,86.8,1004.3,292.5,1.1,1.8,263.5,0.04,18.4,20.9,"06:32:24",1
"20/05/26","06:50",0.0,20.9,86.5,1004.1,288.3,0.7,1.4,320.0,0.05,18.6,20.8,"06:44:00",1
"20/05/26","07:00",0.0,21.3,86.3,1003.8,304.4,0.7,1.4,334.8,0.10,19.0,21.0,"06:59:28",1
"20/05/26","07:10",0.0,21.6,85.3,1003.8,313.7,0.8,1.7,327.1,0.09,19.1,21.1,"07:03:36",1
"20/05/26","07:20",0.0,21.7,83.8,1003.8,323.1,0.7,1.4,328.4,0.08,18.9,21.0,"07:14:48",1
"20/05/26","07:30",0.0,21.9,82.1,1003.8,339.8,0.6,1.2,343.4,0.08,18.7,21.0,"07:20:16",1
"20/05/26","07:40",0.0,21.9,80.5,1003.6,63.4,0.5,1.2,342.0,0.08,18.4,21.2,"07:39:36",1
"20/05/26","07:50",0.0,22.2,79.3,1003.4,47.0,0.6,1.3,338.8,0.09,18.5,21.2,"07:42:08",1
"20/05/26","08:00",0.0,22.5,78.5,1003.4,192.1,0.2,1.2,355.1,0.11,18.6,21.3,"07:55:28",1
"20/05/26","08:10",0.0,22.6,77.3,1003.4,0.3,0.5,1.2,356.1,0.11,18.5,21.4,"08:04:00",1
"20/05/26","08:20",0.0,22.9,75.8,1003.1,316.8,0.6,1.6,333.8,0.12,18.4,21.5,"08:13:28",1
"20/05/26","08:30",0.0,23.2,75.2,1002.9,216.9,0.3,1.6,262.5,0.14,18.6,21.7,"08:26:24",1
"20/05/26","08:40",0.0,23.0,74.1,1002.9,215.9,1.0,2.4,234.2,0.15,18.2,21.6,"08:31:04",1
"20/05/26","08:50",0.0,23.3,74.1,1002.6,202.5,1.0,2.2,238.9,0.20,18.5,21.9,"08:43:20",1
"20/05/26","09:00",0.0,23.3,72.8,1002.6,213.7,1.2,2.1,216.8,0.19,18.2,21.9,"08:51:04",1
"20/05/26","09:10",0.0,23.9,72.5,1002.4,227.4,1.0,1.9,226.0,0.31,18.7,21.9,"09:00:08",1
"20/05/26","09:20",0.0,24.4,69.4,1002.2,159.5,1.5,2.9,178.6,0.37,18.5,22.0,"09:16:40",1
"20/05/26","09:30",0.0,24.9,67.1,1001.9,147.7,1.1,3.1,216.2,0.41,18.4,22.4,"09:26:56",1
"20/05/26","09:40",0.0,25.2,65.6,1001.2,263.0,0.7,2.1,336.7,0.30,18.3,22.7,"09:32:00",1
"20/05/26","09:50",0.0,25.1,65.4,1001.5,120.8,1.0,3.1,118.3,0.27,18.2,22.9,"09:43:52",1
"20/05/26","10:00",0.0,25.0,64.7,1001.7,15.1,0.8,1.9,345.5,0.21,17.9,22.8,"09:54:48",1
"20/05/26","10:10",0.0,25.0,64.9,1001.5,51.2,0.7,1.6,359.3,0.19,18.0,23.2,"10:05:28",1
"20/05/26","10:20",0.0,24.9,65.6,1001.2,28.9,0.7,1.8,346.1,0.19,18.1,23.0,"10:19:20",1
"20/05/26","10:30",0.0,25.1,65.4,1001.2,37.9,0.6,1.4,350.2,0.22,18.2,23.1,"10:29:36",1
"20/05/26","10:40",0.0,25.5,65.1,1001.5,237.4,0.5,1.6,177.9,0.23,18.5,23.5,"10:34:08",1
"20/05/26","10:50",0.0,25.3,65.5,1001.5,202.0,1.0,2.8,216.3,0.18,18.4,23.4,"10:45:04",1
"20/05/26","11:00",0.0,24.9,66.9,1001.5,248.0,1.0,3.1,210.8,0.13,18.4,23.3,"10:50:56",1
"20/05/26","11:10",0.0,25.0,67.1,1001.0,214.0,0.6,1.4,201.4,0.14,18.5,23.4,"11:05:36",1
"20/05/26","11:20",0.0,25.0,67.2,1001.0,191.2,1.1,2.2,222.9,0.17,18.5,23.5,"11:15:04",1
"20/05/26","11:30",0.0,25.0,67.3,1000.8,193.0,1.3,2.9,209.1,0.21,18.6,23.6,"11:22:00",1
"20/05/26","11:40",0.0,25.3,66.1,1001.0,212.2,1.1,2.8,218.0,0.23,18.6,23.7,"11:34:16",1
"20/05/26","11:50",0.0,25.4,65.6,1000.8,150.0,0.5,1.8,184.6,0.15,18.5,23.6,"11:43:52",1
"20/05/26","12:00",0.0,25.1,65.5,1000.8,224.3,1.5,2.9,202.7,0.15,18.2,23.6,"11:54:00",1
"20/05/26","12:10",0.0,25.3,66.1,1000.3,240.1,1.0,2.5,194.8,0.16,18.6,23.7,"12:03:12",1
"20/05/26","12:20",0.0,25.3,65.7,1000.3,245.7,1.1,2.9,235.1,0.14,18.5,23.7,"12:11:12",1
"20/05/26","12:30",0.0,25.2,67.2,1000.8,219.0,0.7,2.7,206.0,0.11,18.7,23.7,"12:21:28",1
"20/05/26","12:40",0.0,25.5,67.5,1000.3,146.4,0.5,1.6,315.5,0.13,19.1,23.6,"12:34:32",1
"20/05/26","12:50",0.0,25.5,66.4,1000.0,298.4,0.6,1.6,229.5,0.11,18.8,23.8,"12:48:24",1
"20/05/26","13:00",0.0,25.3,66.3,1000.5,291.4,0.8,2.0,335.2,0.08,18.6,23.8,"12:51:12",1
"20/05/26","13:10",0.0,25.0,66.9,1000.3,209.0,1.1,2.1,232.4,0.08,18.5,23.7,"13:06:08",1
"20/05/26","13:20",0.0,24.9,67.7,1000.3,245.7,0.6,2.0,205.4,0.07,18.6,23.7,"13:12:16",1
"20/05/26","13:30",0.0,24.8,68.1,1000.8,192.4,0.8,2.0,220.0,0.07,18.6,23.5,"13:21:52",1
"20/05/26","13:40",0.0,24.8,68.2,1000.3,226.1,0.6,1.7,208.6,0.07,18.6,23.5,"13:32:08",1
"20/05/26","13:50",0.0,24.9,68.0,1000.5,284.5,0.8,1.8,343.0,0.09,18.6,23.5,"13:46:48",1
"20/05/26","14:00",0.0,24.9,68.0,1000.5,200.2,0.8,2.2,209.5,0.07,18.6,23.6,"13:56:48",1
"20/05/26","14:10",0.0,24.7,68.0,1000.3,234.2,1.0,2.2,231.0,0.05,18.4,23.4,"14:09:44",1
"20/05/26","14:20",0.0,24.7,68.3,1000.3,231.2,0.6,1.4,233.6,0.04,18.5,23.5,"14:10:08",1
"20/05/26","14:30",0.0,24.5,69.1,1000.0,265.4,0.6,1.4,241.8,0.04,18.5,23.4,"14:29:20",1
"20/05/26","14:40",0.0,24.1,71.0,1000.8,286.8,0.8,1.3,241.7,0.05,18.6,23.3,"14:34:40",1
"20/05/26","14:50",0.0,24.1,73.6,1000.5,274.1,0.8,1.4,263.8,0.05,19.1,23.2,"14:46:40",1
"20/05/26","15:00",0.0,23.8,76.0,1001.0,279.0,0.7,1.6,266.1,0.05,19.4,23.2,"14:52:56",1
"20/05/26","15:10",0.0,23.5,78.4,1001.0,266.6,0.8,1.4,259.7,0.04,19.6,23.2,"15:05:52",1
"20/05/26","15:20",0.0,23.1,79.6,1000.8,320.0,1.0,1.7,321.0,0.04,19.4,23.3,"15:19:46",1
"20/05/26","15:30",0.0,23.0,80.9,1001.0,347.9,1.0,1.9,333.7,0.05,19.6,23.2,"15:21:20",1
"20/05/26","15:40",0.0,22.6,82.4,1001.2,348.7,1.0,1.7,358.9,0.03,19.5,23.1,"15:31:52",1
"20/05/26","15:50",0.0,22.6,83.5,1001.0,318.4,0.7,1.4,329.3,0.02,19.7,23.1,"15:45:44",1
"20/05/26","16:00",0.0,22.3,84.6,1001.2,290.1,0.8,1.4,296.7,0.02,19.6,22.9,"15:59:52",1
"20/05/26","16:10",0.0,22.1,85.3,1001.0,280.0,0.8,1.1,282.7,0.01,19.6,23.1,"16:00:08",1
"20/05/26","16:20",0.0,21.9,86.2,1001.5,308.5,1.2,2.1,327.0,0.01,19.5,22.9,"16:15:12",1
"20/05/26","16:30",0.2,20.9,86.0,1001.5,335.1,1.6,3.9,316.4,0.01,18.5,22.7,"16:27:36",1
"20/05/26","16:40",0.0,19.4,86.9,1001.5,343.9,2.6,6.3,354.7,0.00,17.2,22.7,"16:32:56",1
"20/05/26","16:50",0.0,19.1,87.4,1001.2,340.0,2.7,6.6,339.9,0.03,17.0,22.6,"16:44:24",1
"20/05/26","17:00",0.0,18.9,87.9,1001.2,342.5,2.0,4.5,356.4,0.00,16.9,22.4,"16:56:08",1
"20/05/26","17:10",0.0,17.9,88.4,1002.2,331.2,4.4,8.1,319.9,0.00,16.0,22.2,"17:06:32",1
"20/05/26","17:20",0.0,17.5,88.9,1002.4,340.4,4.1,8.2,320.8,0.00,15.7,21.7,"17:13:50",1
"20/05/26","17:30",0.0,17.3,89.2,1002.6,329.5,3.4,5.9,338.2,0.00,15.5,21.4,"17:28:40",1
"20/05/26","17:40",0.0,17.7,89.6,1002.4,334.4,2.5,4.5,328.8,0.00,16.0,21.2,"17:30:16",1
"20/05/26","17:50",0.0,17.6,89.9,1002.4,326.4,1.5,2.5,339.5,0.00,16.0,21.3,"17:47:44",1
"20/05/26","18:00",0.0,17.4,90.3,1002.6,330.5,2.2,3.5,332.2,0.00,15.8,21.3,"17:53:04",1
"20/05/26","18:10",0.0,17.2,90.6,1002.4,323.6,2.3,4.4,340.8,0.00,15.7,21.0,"18:08:16",1
"20/05/26","18:20",0.0,17.3,90.8,1002.2,325.1,2.0,3.3,326.1,0.00,15.8,21.0,"18:10:40",1
"20/05/26","18:30",0.0,17.2,91.0,1002.6,306.8,1.6,4.2,345.7,0.00,15.8,21.2,"18:20:42",1
"20/05/26","18:40",0.0,17.2,91.1,1002.9,295.6,1.1,1.9,332.4,0.00,15.8,20.8,"18:33:28",1
"20/05/26","18:50",0.0,17.1,91.3,1002.6,323.5,1.3,2.9,337.8,0.00,15.7,20.9,"18:44:56",1
"20/05/26","19:00",0.0,17.1,91.4,1002.6,4.9,0.6,1.4,359.8,0.00,15.7,20.8,"18:51:52",1
"20/05/26","19:10",0.0,17.1,91.6,1002.9,335.7,0.6,1.4,332.2,0.00,15.8,20.7,"19:02:48",1
"20/05/26","19:20",0.0,17.1,91.7,1002.9,324.6,0.7,1.6,319.4,0.00,15.8,20.7,"19:15:28",1
"20/05/26","19:30",0.0,17.0,91.8,1002.9,323.5,1.0,1.4,326.3,0.00,15.7,20.4,"19:26:32",1
"20/05/26","19:40",0.0,17.1,91.9,1002.9,326.9,1.6,2.7,320.6,0.00,15.8,20.5,"19:34:56",1
"20/05/26","19:50",0.0,17.1,92.1,1003.1,326.6,1.5,2.1,331.0,0.00,15.8,20.7,"19:46:48",1
"20/05/26","20:00",0.0,17.0,92.2,1003.1,327.7,1.0,1.8,334.4,0.00,15.8,20.6,"19:57:52",1
"20/05/26","20:10",0.0,17.1,92.4,1003.1,324.9,1.2,2.4,339.7,0.00,15.9,20.6,"20:05:36",1
"20/05/26","20:20",0.0,17.1,92.5,1002.9,312.8,1.3,2.8,329.3,0.00,15.9,20.5,"20:19:24",1
"20/05/26","20:30",0.0,17.1,92.6,1003.1,301.6,0.7,2.2,339.2,0.00,15.9,20.6,"20:20:08",1
"20/05/26","20:40",0.0,17.0,92.7,1002.9,310.2,0.7,1.6,326.0,0.00,15.8,20.4,"20:33:12",1
"20/05/26","20:50",0.0,17.0,92.8,1002.6,308.0,1.5,2.2,330.9,0.00,15.9,20.4,"20:47:52",1
"20/05/26","21:00",0.0,16.9,93.0,1002.9,319.8,2.0,3.9,320.5,0.00,15.8,20.3,"20:56:24",1
"20/05/26","21:10",0.0,16.9,93.1,1002.9,325.3,1.1,2.0,330.6,0.00,15.8,20.5,"21:08:24",1
"20/05/26","21:20",0.0,17.0,93.2,1003.1,319.5,1.5,2.9,332.9,0.00,15.9,20.5,"21:15:52",1
"20/05/26","21:30",0.0,17.0,93.3,1003.4,328.3,1.6,2.9,313.3,0.00,16.0,20.4,"21:22:56",1
"20/05/26","21:40",0.0,17.0,93.4,1003.1,338.8,1.8,3.9,335.1,0.00,16.0,20.2,"21:37:20",1
"20/05/26","21:50",0.0,17.1,93.5,1003.1,321.5,1.5,2.7,333.4,0.00,16.1,20.2,"21:44:00",1
"20/05/26","22:00",0.0,17.0,93.5,1003.1,305.2,1.5,3.4,343.6,0.00,16.0,20.1,"21:50:02",1
"20/05/26","22:10",0.0,17.0,93.6,1002.9,329.7,2.2,4.3,333.1,0.00,16.0,20.1,"22:05:04",1
"20/05/26","22:20",0.0,17.1,93.7,1002.6,336.5,1.6,2.9,345.0,0.00,16.1,20.1,"22:15:12",1
"20/05/26","22:30",0.0,17.1,93.7,1002.9,346.4,1.2,2.7,341.1,0.00,16.1,20.2,"22:22:56",1
"20/05/26","22:40",0.0,17.2,93.7,1002.9,288.9,0.6,0.9,318.0,0.00,16.2,20.1,"22:35:28",1
"20/05/26","22:50",0.0,17.2,93.8,1002.9,320.6,1.2,2.1,335.4,0.00,16.2,20.1,"22:49:20",1
"20/05/26","23:00",0.2,17.1,93.8,1002.9,308.4,1.1,1.8,324.5,0.00,16.1,20.2,"22:50:32",1
"20/05/26","23:10",0.0,17.1,93.9,1002.4,302.1,0.7,1.6,318.7,0.00,16.2,20.0,"23:08:48",1
"20/05/26","23:20",0.0,17.1,93.9,1002.4,317.2,1.5,2.0,323.9,0.00,16.2,20.1,"23:15:12",1
"20/05/26","23:30",0.0,17.0,94.0,1002.2,281.7,1.0,1.4,310.0,0.00,16.1,20.1,"23:21:28",1
"20/05/26","23:40",0.0,17.0,94.1,1001.9,312.8,1.1,1.9,325.1,0.00,16.1,20.2,"23:35:28",1
"20/05/26","23:50",0.0,17.0,94.1,1002.4,318.6,1.0,1.7,327.4,0.00,16.1,20.1,"23:48:56",1
"20/05/26","24:00",0.0,17.0,94.2,1001.9,327.7,1.2,1.8,331.1,0.00,16.1,19.8,"23:58:00",1
